Simultaneous Nadir Overpasses (SNOs) Predictions

Prediction of SNOs between AQUA and METOP-B Satellite Orbit:

Table of predicted SNOs for the next 14.0 days since TLE Epoch: 8/10/2019
Index Date (AQUA) Time (AQUA) Lat,Lon (AQUA) SZA (AQUA ) Date (METOP-B) Time (METOP-B) Lat,Lon (METOP-B) SZA (METOP-B ) Distance(km) Time Diff (sec)
1 08/12/2019 10:27:51 73.83, 17.26 58.90 08/12/2019 10:27:12 73.85, 17.30 58.92 1.96 39
2 08/12/2019 11:17:18 -73.92,-175.28 121.01 08/12/2019 11:17:52 -73.92,-175.19 121.01 2.79 34
3 08/15/2019 06:02:06 73.86, 83.64 59.78 08/15/2019 06:01:34 73.85, 83.72 59.77 2.70 32
4 08/15/2019 06:51:32 -73.89,-108.79 120.18 08/15/2019 06:52:15 -73.88,-108.89 120.19 3.27 43
5 08/18/2019 01:36:19 73.84, 150.12 60.64 08/18/2019 01:35:55 73.85, 150.13 60.66 1.42 24
6 08/18/2019 02:25:46 -73.92, -42.42 119.26 08/18/2019 02:26:35 -73.94, -42.34 119.26 2.85 49
7 08/20/2019 20:20:57 -73.39, 49.89 118.94 08/20/2019 20:19:48 -73.32, 47.97 118.93 61.82 69
8 08/20/2019 21:10:34 73.88,-143.52 61.59 08/20/2019 21:10:17 73.85,-143.46 61.57 3.02 17
9 08/20/2019 22:00:00 -73.91, 24.06 118.37 08/20/2019 22:00:58 -73.89, 23.96 118.38 3.25 58
10 08/23/2019 15:55:17 -73.69, 115.70 117.69 08/23/2019 15:54:04 -73.62, 115.07 117.72 20.92 73
11 08/23/2019 16:44:48 73.86, -77.05 62.52 08/23/2019 16:44:39 73.85, -77.05 62.51 1.02 9
12 08/23/2019 17:34:15 -73.95, 90.41 117.39 08/23/2019 17:35:19 -73.95, 90.50 117.40 2.91 64




NCC Satellite Simultaneous Nadir Overpasses (SNOs) Prediction Service
